AirNav   Air Wisconsin pilot careers
 
 896 users online  

KGAB Gabbs Airport
Gabbs, Nevada, USA

GOING TO GABBS?


FAA INFORMATION EFFECTIVE 29 MARCH 2018

Location

FAA Identifier: GAB
Lat/Long: 38-55-26.7280N / 117-57-32.4260W
38-55.445467N / 117-57.540433W
38.9240911 / -117.9590072
(estimated)
Elevation: 4700 ft. / 1433 m (estimated)
Variation: 15E (1985)
From city: 4 miles NW of GABBS, NV
Time zone: UTC -7 (UTC -8 during Standard Time)
Zip code: 89409

Airport Operations

Airport use: Open to the public
Activation date: 09/1943
Control tower: no
ARTCC: OAKLAND CENTER
FSS: RENO FLIGHT SERVICE STATION
NOTAMs facility: RNO (NOTAM-D service available)
Attendance: UNATNDD
Wind indicator: yes
Segmented circle: yes
Beacon: ARPT BEACON OTS INDEFLY.

Airport Communications

CTAF: 122.9

Nearby radio navigation aids

VOR radial/distance  VOR name  Freq  Var
MVAr352/21.8MINA VORTAC115.1017E

Airport Services

Parking: tiedowns
Airframe service: NONE
Powerplant service: NONE
Bottled oxygen: NONE
Bulk oxygen: NONE

Runway Information

Runway 9/27

Dimensions: 5900 x 65 ft. / 1798 x 20 m
Surface: dirt, in good condition
RUNWAY 9  RUNWAY 27
Gradient: 0.9%0.9%
Traffic pattern: leftleft

Runway 16/34

Dimensions: 2800 x 65 ft. / 853 x 20 m
Surface: dirt, in good condition
RUNWAY 16  RUNWAY 34
Traffic pattern: leftleft

Airport Ownership and Management from official FAA records

Ownership: Publicly-owned
Owner: NYE COUNTY
BOX 1031
TONOPAH, NV 89049
Phone (775) 209-4174
Manager: TIM CARLO
250 N. HWY 160 #2
PAHRUMP, NV 89060
Phone (775) 751-6262
EMERGENCY CONTACT COUNTY AIRPORT OPERATIONS 775-513-3107

Airport Operational Statistics

Aircraft based on the field: 1
Single engine airplanes: 1
    
Aircraft operations: 200/year *
50% transient general aviation
50% local general aviation
* for 12-month period ending 30 June 2015

Additional Remarks

RCMD LAND RWY 09; TKOF RWY 27 WIND PMTG.
RWY 09/27 & RWY 16/34 NO LINE OF SIGHT BTN RWYS.

Instrument Procedures

There are no published instrument procedures at KGAB.

Some nearby airports with instrument procedures:

KHTH - Hawthorne Industrial Airport (39 nm SW)
KNFL - Fallon Naval Air Station (Van Voorhis Field) Airport (45 nm NW)
KFLX - Fallon Municipal Airport (50 nm NW)
KTPH - Tonopah Airport (66 nm SE)
KSPZ - Silver Springs Airport (67 nm NW)
 
Loc | Ops | Rwys | IFR | FBO | Links
Com | Nav | Svcs | Stats | Notes

AirNav Hotels Sweepstakes
 
Area around KGAB (Gabbs Airport)
 
Road maps at: MapQuest Bing Google
 
Aerial photo
WARNING: Photo may not be current or correct
Aerial photo of KGAB (Gabbs Airport)
Chris Mullins
Photo taken 29-Sep-2004

Do you have a better or more recent aerial photo of Gabbs Airport that you would like to share? If so, please send us your photo.

 
Sectional chart

 
Airport distance calculator
Flying to Gabbs Airport? Find the distance to fly.

From to KGAB

Sunrise and sunset
Times for 20-Apr-2018
 Local
(UTC-7)
 Zulu
(UTC)
Morning civil twilight05:4112:41
Sunrise06:0913:09
Sunset19:3202:32
Evening civil twilight20:0003:00

Current date and time
Zulu (UTC)  20-Apr-2018 12:18:44
Local (UTC-7)  20-Apr-2018 05:18:44
 
METAR
KHTH 
39nm SW 
201155Z AUTO 29005KT 10SM CLR 05/01 A3015 RMK A01
KNFL 
45nm NW 
201156Z VRB05KT 10SM CLR 02/00 A3015 RMK AO2 SLP176 70002 T00220000 10067 20006 53013
KTMT 
48nm NE 
201155Z AUTO 19005KT 10SM CLR 00/M01 A3014 RMK AO2 70011 T00001007 10035 20000
TAF
KNFL 
45nm NW 
2007/2107 34009KT 9999 SCT060 BKN090 WSCONDS 521206 QNH3002INS FM201100 33007KT 9999 SKC 521206 QNH3006INS FM210300 VRB06KT 9999 SKC 500000 QNH3009INS T00/2013Z T20/2023Z FS30020
NOTAMs
Click for the latest NOTAMs
NOTAMs are issued by the DoD/FAA and will open in a separate window not controlled by AirNav.

 

 
 

Would you like to see your business listed on this page?

 If your business provides an interesting product or service to pilots, flight crews, aircraft, or users of the Gabbs Airport, you should consider listing it here.  To start the listing process, click on the button below
 
Add a business
 

Other Pages about Gabbs Airport

Update a link
 
Copyright © AirNav, LLC. All rights reserved. Privacy Policy  Contact